Weather in Pushkinskiy

Russia / Orenburg Oblast     52°45′33″N   53°52′15″E
temp.,
°C
wind,
m/s
gust,
m/s
humid.,
%
clouds,
%
prec.,
mm/h
press.,
hPa
HPBL,
m
1 march, mon
mon123:00−15nnw339493 0.4 101062
02:00−17nw239466 0.0 101234
05:00−17nw229582 0.0 101435
08:00−17nw239591 0.0 101679
11:00−17nw249379 0.0 1018165
14:00−14wnw349253 0.0 1019313
17:00−15nw359366 0.0 1020314
20:00−20wnw229816 0.0 102120
2 march, tue
tue223:00−21w2210039 0.0 102220
02:00−22w239975 0.0 102221
05:00−23sw239951 0.0 102122
08:00−20ssw479980 0.0 1018173
11:00−16ssw7119590 0.1 1016337
14:00−11ssw81394100 0.6 1012525
17:00−8sw81494100 1.6 1010697
20:00−5ssw81591100 0.4 1007625
3 march, wed
wed323:00−4sw81494100 0.8 1004652
02:00−3sw71395100 0.8 1002597
05:00−3sw61196100 1.6 1002408
08:00−2wsw3697100 0.3 1002202
11:00−3w3596100 0.4 1003248
14:00−3wnw349484 0.0 1003262
17:00−4wnw239558 0.0 100367
20:00−5nw249677 0.1 1004122
4 march, thu
thu423:00−7wnw349688 0.1 100698
02:00−8wnw489593 0.1 1006224
05:00−13wnw349791 0.1 100885
08:00−14w369890 0.1 1009114
11:00−11wsw479593 0.1 1010261
14:00−8sw6109395 0.1 1010442
17:00−6sw7129298 0.1 1010564
20:00−6sw71393100 0.1 1009762
5 march, fri
fri523:00−4sw91691100 0.3 1007881
02:00−2sw101795100 0.8 1005908
05:00−1sw111789100 1.3 1003977
08:00−2sw111892100 0.1 1003929
11:00−1wsw111792100 0.8 10051021
14:000wsw81395100 0.4 1008971
17:00−2nw4884100 1.4 1011448
20:00−5nw2387100 0.0 101333